User: anonymous   Login
Location: Unspecified
(0.0000°N, 0.0000°E)
Time: 11:35:10
(UTC+00:00)
Language:

STARS-C - Orbit

View from above orbital plane
View from above orbital plane
View from above satellite
View from above satellite

Ground track
Ground track

The orbit data is extracted from the following two-line orbital elements,

1 41895U 98067KR  17328.81756598  .00103601  00000-0  60320-3 0  9992
2 41895  51.6359 296.8098 0004066 113.1175 247.0254 15.77637151 53189
Epoch (UTC): 24 November 2017 19:37:17
Eccentricity: 0.0004066
inclination: 51.6359°
perigee height: 334 km
apogee height: 340 km
right ascension of ascending node: 296.8098°
argument of perigee: 113.1175°
revolutions per day: 15.77637151
mean anomaly at epoch: 247.0254°
orbit number at epoch: 5318

The dashed part of the orbit path shows where the satellite is in the earth's shadow,  

DLR